GW5290 Weather Reports


Display with metric or nautical units.
time (UTC)temp
F
wind
direction
speed
MPH
gust
MPH
rain 1hr
in
rain 24hr
in
rain mn
in
humidity
%
barometer
mb
20260506003514 60 109 0.0 2.0 0.00 0.00 0.00 69 1007.2
20260506003038 60 238 0.0 3.0 0.00 0.00 0.00 68 1007.0
20260506002511 61 221 1.0 3.0 0.00 0.00 0.00 68 1006.8
20260506002012 61 165 1.0 3.0 0.00 0.00 0.00 67 1006.6
20260506001535 62 164 0.0 3.0 0.00 0.00 0.00 67 1006.5
20260506001010 62 148 1.0 3.0 0.00 0.00 0.00 67 1006.3
20260506000510 62 171 0.0 2.0 0.00 0.00 0.00 66 1006.0
20260506000031 62 171 0.0 3.0 0.00 0.00 0.00 67 1005.6
20260505235508 62 169 1.0 3.0 0.00 0.00 0.00 68 1005.7
20260505235011 63 122 1.0 3.0 0.00 0.00 0.00 68 1005.6
20260505234539 63 324 1.0 4.0 0.00 0.00 0.00 66 1005.7
20260505234018 63 293 1.0 4.0 0.00 0.00 0.00 67 1006.0
20260505233515 63 207 2.0 4.0 0.00 0.00 0.00 66 1006.1
20260505233019 63 286 1.0 7.0 0.00 0.00 0.00 66 1006.2
20260505232513 63 233 1.0 10.0 0.00 0.00 0.00 67 1006.1
20260505232011 62 233 2.0 10.0 0.00 0.00 0.00 66 1005.9
20260505231521 62 226 4.0 8.0 0.00 0.00 0.00 66 1005.9
20260505231009 62 219 3.0 12.0 0.00 0.00 0.00 67 1006.0
20260505230509 61 267 2.0 18.0 0.00 0.00 0.00 67 1006.2
20260505230021 61 278 9.0 18.0 0.00 0.00 0.00 67 1005.9
20260505225517 60 207 3.0 10.0 0.00 0.00 0.00 67 1004.7
20260505225010 61 180 1.0 6.0 0.00 0.00 0.00 67 1004.2
20260505224522 61 176 1.0 7.0 0.00 0.00 0.00 65 1004.0
20260505224009 62 194 2.0 7.0 0.00 0.00 0.00 65 1003.8
20260505223510 62 182 1.0 7.0 0.00 0.00 0.00 64 1003.8
20260505223024 62 204 2.0 16.0 0.00 0.00 0.00 63 1003.8
20260505222510 63 205 4.0 16.0 0.00 0.00 0.00 64 1003.8
20260505222011 63 224 6.0 25.0 0.00 0.00 0.00 63 1003.7
20260505221524 63 212 6.0 25.0 0.00 0.00 0.00 63 1003.6
20260505221011 63 200 8.0 20.0 0.00 0.00 0.00 63 1003.8
20260505220512 63 219 8.0 18.0 0.00 0.00 0.00 62 1003.6
20260505220038 63 178 5.0 14.0 0.00 0.00 0.00 62 1003.5
20260505215510 63 135 4.0 16.0 0.00 0.00 0.00 63 1003.6
20260505215006 63 179 6.0 19.0 0.00 0.00 0.00 62 1003.4
20260505214529 63 197 4.0 19.0 0.00 0.00 0.00 62 1003.6
20260505214010 64 178 6.0 17.0 0.00 0.00 0.00 62 1003.7
20260505213508 64 206 4.0 9.0 0.00 0.00 0.00 63 1003.5
20260505213026 63 158 3.0 12.0 0.00 0.00 0.00 63 1003.5
20260505212515 63 136 4.0 15.0 0.00 0.00 0.00 63 1003.5
20260505212015 64 193 6.0 16.0 0.00 0.00 0.00 62 1003.4
20260505211526 64 202 5.0 16.0 0.00 0.00 0.00 62 1003.5
20260505211006 65 201 5.0 16.0 0.00 0.00 0.00 61 1003.4
20260505210506 66 192 3.0 18.0 0.00 0.00 0.00 60 1003.2
20260505210029 66 229 6.0 18.0 0.00 0.00 0.00 59 1003.5
20260505205508 67 163 7.0 16.0 0.00 0.00 0.00 57 1003.4
20260505205010 68 173 5.0 20.0 0.00 0.00 0.00 59 1003.3
20260505204526 68 180 7.0 20.0 0.00 0.00 0.00 57 1003.3
20260505204011 68 172 6.0 15.0 0.00 0.00 0.00 58 1003.3
20260505203512 68 174 5.0 20.0 0.00 0.00 0.00 58 1003.3
20260505203025 68 225 4.0 20.0 0.00 0.00 0.00 57 1003.2
20260505202508 68 20 6.0 20.0 0.00 0.00 0.00 57 1003.5
20260505202012 68 232 4.0 17.0 0.00 0.00 0.00 57 1003.3
20260505201526 68 159 5.0 17.0 0.00 0.00 0.00 58 1003.4
20260505201008 68 147 4.0 17.0 0.00 0.00 0.00 60 1003.5
20260505200510 68 200 2.0 9.0 0.00 0.00 0.00 59 1003.6
20260505200028 68 155 2.0 6.0 0.00 0.00 0.00 59 1003.7
20260505195506 68 252 2.0 7.0 0.00 0.00 0.00 60 1003.6
20260505195016 67 171 2.0 11.0 0.00 0.00 0.00 61 1003.7
20260505194534 67 182 3.0 11.0 0.00 0.00 0.00 60 1003.7
20260505194011 68 188 3.0 8.0 0.00 0.00 0.00 59 1003.7
20260505193509 68 167 3.0 8.0 0.00 0.00 0.00 59 1003.8
20260505193038 68 127 3.0 8.0 0.00 0.00 0.00 58 1003.8
20260505192512 68 187 3.0 7.0 0.00 0.00 0.00 59 1003.9
20260505192007 68 151 2.0 8.0 0.00 0.00 0.00 58 1003.9
20260505191541 68 49 2.0 8.0 0.00 0.00 0.00 59 1004.0
20260505191014 68 153 4.0 8.0 0.00 0.00 0.00 58 1004.2
20260505190508 68 173 3.0 6.0 0.00 0.00 0.00 60 1004.4
20260505190024 68 134 2.0 6.0 0.00 0.00 0.00 59 1004.5
20260505185504 68 74 2.0 6.0 0.00 0.00 0.00 59 1004.6
20260505185006 67 185 2.0 8.0 0.00 0.00 0.00 61 1004.6
20260505184516 67 173 1.0 8.0 0.00 0.00 0.00 60 1004.7
20260505184004 67 140 1.0 5.0 0.00 0.00 0.00 61 1004.7
20260505183507 67 165 2.0 5.0 0.00 0.00 0.00 62 1004.9
20260505183023 67 212 2.0 6.0 0.00 0.00 0.00 60 1004.9
20260505182502 67 192 2.0 7.0 0.00 0.00 0.00 61 1004.9
20260505182008 67 184 1.0 8.0 0.00 0.00 0.00 60 1005.0
20260505181517 67 185 2.0 8.0 0.00 0.00 0.00 63 1005.1
20260505181005 66 199 2.0 6.0 0.00 0.00 0.00 62 1005.1
20260505180507 66 190 2.0 6.0 0.00 0.00 0.00 63 1005.0
20260505180034 66 162 2.0 5.0 0.00 0.00 0.00 64 1005.1
20260505175503 65 148 2.0 5.0 0.00 0.00 0.00 64 1005.0
20260505175006 65 228 2.0 6.0 0.00 0.00 0.00 64 1005.2
20260505174531 65 157 2.0 7.0 0.00 0.00 0.00 65 1005.2
20260505174003 65 161 1.0 7.0 0.00 0.00 0.00 64 1005.3
20260505173507 65 53 1.0 5.0 0.00 0.00 0.00 64 1005.4
20260505173020 65 178 2.0 10.0 0.00 0.00 0.00 62 1005.5
20260505172502 65 167 2.0 10.0 0.00 0.00 0.00 63 1005.5
20260505172008 65 111 2.0 7.0 0.00 0.00 0.00 64 1005.6
20260505171530 65 179 2.0 7.0 0.00 0.00 0.00 63 1005.8
20260505171003 64 132 2.0 7.0 0.00 0.00 0.00 65 1005.8
20260505170507 64 98 1.0 5.0 0.00 0.00 0.00 66 1005.9
20260505170028 64 182 1.0 4.0 0.00 0.00 0.00 66 1005.9
20260505165503 64 176 1.0 4.0 0.00 0.00 0.00 64 1006.0
20260505165007 64 130 1.0 5.0 0.00 0.00 0.00 63 1006.0
20260505164524 65 86 1.0 5.0 0.00 0.00 0.00 65 1006.1
20260505164010 65 161 2.0 5.0 0.00 0.00 0.00 64 1006.1
20260505163507 64 171 1.0 4.0 0.00 0.00 0.00 64 1006.1
20260505163024 64 161 1.0 4.0 0.00 0.00 0.00 66 1006.5
20260505162506 64 155 1.0 5.0 0.00 0.00 0.00 65 1006.5
20260505162007 65 157 1.0 5.0 0.00 0.00 0.00 66 1006.8
20260505161506 65 121 1.0 5.0 0.00 0.00 0.00 63 1006.6
20260505161007 65 159 2.0 4.0 0.00 0.00 0.00 61 1006.6
20260505160510 66 142 1.0 4.0 0.00 0.00 0.00 62 1006.7
20260505153003 62 159 1.0 4.0 0.00 0.00 0.00 67 1007.1
20260505152503 61 177 2.0 4.0 0.00 0.00 0.00 70 1007.3
20260505152005 60 151 1.0 3.0 0.00 0.00 0.00 71 1007.5
20260505151504 59 173 1.0 3.0 0.00 0.00 0.00 74 1007.5
20260505151002 58 182 0.0 3.0 0.00 0.00 0.00 74 1007.6
20260505150503 57 106 0.0 3.0 0.00 0.00 0.00 76 1007.6
20260505140505 63 199 1.0 4.0 0.00 0.00 0.00 65 1007.1
20260505125003 59 132 1.0 3.0 0.00 0.00 0.00 68 1007.2
20260505124511 59 130 1.0 3.0 0.00 0.00 0.00 70 1007.2
20260505124004 58 186 1.0 3.0 0.00 0.00 0.00 69 1007.3
20260505123503 58 153 0.0 3.0 0.00 0.00 0.00 69 1007.1
20260505123009 58 190 1.0 3.0 0.00 0.00 0.00 71 1007.1
20260505122503 57 311 1.0 3.0 0.00 0.00 0.00 71 1007.2
20260505122005 57 112 0.0 3.0 0.00 0.00 0.00 73 1007.2
20260505121509 56 175 1.0 3.0 0.00 0.00 0.00 72 1007.0
20260505121005 56 193 1.0 3.0 0.00 0.00 0.00 76 1007.1
20260505120507 55 165 1.0 3.0 0.00 0.00 0.00 75 1007.3
20260505120006 55 196 0.0 3.0 0.00 0.00 0.00 75 1007.4
20260505115504 55 221 1.0 3.0 0.00 0.00 0.00 75 1007.5
20260505115007 54 150 0.0 2.0 0.00 0.00 0.00 77 1007.6
20260505114508 53 148 0.0 2.0 0.00 0.00 0.00 78 1007.6
20260505114004 52 165 0.0 2.0 0.00 0.00 0.00 80 1007.8
20260505113502 51 169 1.0 2.0 0.00 0.00 0.00 81 1007.8
20260505113005 51 102 1.0 2.0 0.00 0.00 0.00 83 1007.8
20260505112507 50 135 0.0 2.0 0.00 0.00 0.00 84 1007.7
20260505112006 49 133 1.0 2.0 0.00 0.00 0.00 85 1007.7
20260505111505 49 169 1.0 3.0 0.00 0.00 0.00 85 1007.7
20260505111002 48 182 0.0 3.0 0.00 0.00 0.00 86 1007.7
20260505110505 48 167 0.0 1.0 0.00 0.00 0.00 86 1007.7
20260505102006 47 177 0.0 2.0 0.00 0.00 0.00 86 1007.7
20260505101506 47 177 0.0 2.0 0.00 0.00 0.00 86 1007.7
20260505101007 47 177 0.0 1.0 0.00 0.00 0.00 86 1007.6
20260505100503 46 177 0.0 1.0 0.00 0.00 0.00 86 1007.6
20260505100008 46 177 0.0 2.0 0.00 0.00 0.00 86 1007.6
20260505095504 46 177 0.0 3.0 0.00 0.00 0.00 86 1007.6
20260505095004 46 177 1.0 3.0 0.00 0.00 0.00 86 1007.6
20260505094510 46 167 0.0 3.0 0.00 0.00 0.00 85 1007.5
20260505094006 46 167 0.0 1.0 0.00 0.00 0.00 85 1007.6
20260505093507 46 167 0.0 3.0 0.00 0.00 0.00 85 1007.6
20260505093012 46 167 0.0 3.0 0.00 0.00 0.00 85 1007.6
20260505092505 47 168 0.0 2.0 0.00 0.00 0.00 85 1007.7
20260505092008 47 168 0.0 2.0 0.00 0.00 0.00 84 1007.6
20260505091512 47 168 0.0 1.0 0.00 0.00 0.00 84 1007.7
20260505091006 47 168 0.0 1.0 0.00 0.00 0.00 83 1007.7
20260505090506 47 168 0.0 1.0 0.00 0.00 0.00 82 1007.7
20260505090012 47 168 0.0 1.0 0.00 0.00 0.00 82 1007.7
20260505085504 47 168 0.0 1.0 0.00 0.00 0.00 81 1007.7
20260505085010 48 168 0.0 1.0 0.00 0.00 0.00 81 1007.8
20260505084517 48 168 0.0 1.0 0.00 0.00 0.00 80 1007.8
20260505084005 48 168 0.0 1.0 0.00 0.00 0.00 80 1007.8
20260505083505 48 168 0.0 1.0 0.00 0.00 0.00 79 1007.8
20260505083014 49 168 0.0 1.0 0.00 0.00 0.00 78 1007.8
20260505082504 49 168 0.0 1.0 0.00 0.00 0.00 77 1007.8
20260505082003 49 168 0.0 1.0 0.00 0.00 0.00 76 1007.9
20260505081510 49 212 0.0 1.0 0.00 0.00 0.00 76 1007.8
20260505081007 49 212 0.0 0.0 0.00 0.00 0.00 75 1007.9
20260505080506 50 212 0.0 1.0 0.00 0.00 0.00 75 1007.8
20260505080027 50 212 0.0 1.0 0.00 0.00 0.00 75 1007.8
20260505075506 50 212 0.0 1.0 0.00 0.00 0.00 74 1007.9
20260505075012 50 212 0.0 2.0 0.00 0.00 0.00 74 1007.9
20260505074513 51 212 0.0 2.0 0.00 0.00 0.00 73 1007.9
20260505074006 51 175 0.0 1.0 0.00 0.00 0.00 72 1008.0
20260505073506 51 172 0.0 1.0 0.00 0.00 0.00 72 1007.9
20260505073017 52 172 0.0 1.0 0.00 0.00 0.00 71 1007.9
20260505072507 52 172 0.0 1.0 0.00 0.00 0.00 70 1007.8
20260505072007 53 172 0.0 2.0 0.00 0.00 0.00 69 1007.7
20260505071512 53 172 0.0 2.0 0.00 0.00 0.00 68 1007.7
20260505071011 54 163 0.0 2.0 0.00 0.00 0.00 67 1007.7
20260505070508 54 158 0.0 2.0 0.00 0.00 0.00 65 1007.7
20260505070012 55 159 0.0 2.0 0.00 0.00 0.00 63 1007.6
20260505065509 55 182 0.0 3.0 0.00 0.00 0.00 61 1007.6
20260505065007 56 220 1.0 7.0 0.00 0.00 0.00 61 1007.7
20260505064515 56 240 1.0 7.0 0.00 0.00 0.00 60 1007.6
20260505064007 56 234 2.0 8.0 0.00 0.00 0.00 60 1007.6
20260505063507 56 209 3.0 8.0 0.00 0.00 0.00 59 1007.5
20260505063015 56 206 3.0 8.0 0.00 0.00 0.00 59 1007.4
20260505062508 56 229 4.0 8.0 0.00 0.00 0.00 59 1007.4
20260505062004 56 236 3.0 7.0 0.00 0.00 0.00 59 1007.3
20260505061528 57 201 4.0 8.0 0.00 0.00 0.00 58 1007.3
20260505061009 57 201 3.0 11.0 0.00 0.00 0.00 58 1007.4
20260505060507 57 223 4.0 11.0 0.00 0.00 0.00 58 1007.4
20260505060023 57 226 2.0 8.0 0.00 0.00 0.00 57 1007.3
20260505055506 57 232 3.0 10.0 0.00 0.00 0.00 57 1007.4
20260505055007 57 225 4.0 10.0 0.00 0.00 0.00 57 1007.3
20260505054516 58 231 4.0 9.0 0.00 0.00 0.00 57 1007.3
20260505054008 58 240 2.0 9.0 0.00 0.00 0.00 57 1007.4
20260505053512 58 230 5.0 11.0 0.00 0.00 0.00 57 1007.4
20260505053016 58 207 5.0 11.0 0.00 0.00 0.00 57 1007.4
20260505052508 58 255 3.0 12.0 0.00 0.00 0.00 56 1007.3
20260505052008 58 233 4.0 12.0 0.00 0.00 0.00 57 1007.3
20260505051515 58 213 4.0 9.0 0.00 0.00 0.00 57 1007.4
20260505051007 58 195 4.0 9.0 0.00 0.00 0.00 57 1007.3
20260505050508 58 207 4.0 10.0 0.00 0.00 0.00 57 1007.3
20260505041528 58 236 4.0 12.0 0.00 0.00 0.00 56 1006.9
20260505041007 58 240 4.0 12.0 0.00 0.00 0.00 56 1007.0
20260505040507 58 181 4.0 13.0 0.00 0.00 0.00 57 1006.9
20260505040019 58 275 4.0 13.0 0.00 0.00 0.00 57 1006.9
20260505035506 58 233 4.0 12.0 0.00 0.00 0.00 58 1006.9
20260505035002 57 246 4.0 15.0 0.00 0.00 0.00 59 1006.9
20260505034514 57 242 4.0 15.0 0.00 0.00 0.00 61 1006.8
20260505034007 56 189 4.0 12.0 0.00 0.00 0.00 62 1006.8
20260505033503 56 194 5.0 12.0 0.00 0.00 0.00 63 1006.9
20260505033018 55 202 6.0 12.0 0.00 0.00 0.00 65 1006.9
20260505032503 54 217 5.0 10.0 0.00 0.00 0.00 67 1006.9
20260505032004 53 217 4.0 10.0 0.00 0.00 0.00 70 1006.9
20260505031515 52 244 3.0 14.0 0.00 0.00 0.00 73 1006.9
20260505031003 51 222 3.0 14.0 0.00 0.00 0.00 76 1006.9
20260505030504 49 176 4.0 13.0 0.00 0.00 0.00 79 1006.8
20260505030015 48 206 3.0 9.0 0.00 0.00 0.00 81 1006.8
20260505025502 48 243 1.0 3.0 0.00 0.00 0.00 82 1006.9
20260505025002 48 101 0.0 1.0 0.00 0.00 0.00 82 1006.9
20260505024534 48 101 0.0 1.0 0.00 0.00 0.00 82 1006.9
20260505024003 48 115 0.0 2.0 0.00 0.00 0.00 83 1006.9
20260505023503 47 115 0.0 2.0 0.00 0.00 0.00 83 1006.8
20260505023016 47 115 0.0 1.0 0.00 0.00 0.00 84 1006.8
20260505022506 47 115 0.0 1.0 0.00 0.00 0.00 84 1006.8
20260505022006 47 117 0.0 1.0 0.00 0.00 0.00 84 1006.8
20260505021520 47 117 0.0 1.0 0.00 0.00 0.00 83 1006.7
20260505021004 47 119 0.0 1.0 0.00 0.00 0.00 83 1006.7
20260505020506 47 119 0.0 1.0 0.00 0.00 0.00 83 1006.7
20260505020020 47 119 0.0 1.0 0.00 0.00 0.00 83 1006.7
20260505015503 47 119 0.0 1.0 0.00 0.00 0.00 83 1006.7
20260505015008 47 119 0.0 1.0 0.00 0.00 0.00 83 1006.8
20260505014520 47 119 0.0 2.0 0.00 0.00 0.00 83 1006.7
20260505014004 47 121 0.0 2.0 0.00 0.00 0.00 83 1006.6
20260505013507 47 138 0.0 2.0 0.00 0.00 0.00 83 1006.5
20260505013023 47 113 0.0 2.0 0.00 0.00 0.00 82 1006.2
20260505012503 47 113 0.0 2.0 0.00 0.00 0.00 82 1006.2
20260505012007 48 113 0.0 2.0 0.00 0.00 0.00 81 1006.2
20260505011522 48 123 0.0 2.0 0.00 0.00 0.00 81 1006.2
20260505011005 48 123 0.0 2.0 0.00 0.00 0.00 81 1006.2
20260505010506 48 117 0.0 1.0 0.00 0.00 0.00 80 1006.1
20260505010020 48 115 0.0 3.0 0.00 0.00 0.00 80 1006.0
20260505005504 48 72 0.0 3.0 0.00 0.00 0.00 79 1005.9
20260505005008 49 148 0.0 3.0 0.00 0.00 0.00 79 1006.0
20260505004522 49 119 0.0 4.0 0.00 0.00 0.00 79 1005.9
20260505004004 49 119 2.0 4.0 0.00 0.00 0.00 78 1005.8